Location: Albuquerque Trailhead
(34.7934°N, 106.3736°W)
Time: 04:22:45
(UTC+00:00)

KAITUO 1B - Visible Passes

Search period start: 29 March 2023 00:00
Search period end: 08 April 2023 00:00
Orbit: 446 x 460 km, 97.4° (Epoch: 28 March)

Date Brightness Start Highest point End Pass type
(mag) Time Alt. Az. Time Alt. Az. Time Alt. Az.
29 Mar ? 01:48:43 10° SSW 01:51:36 27° W 01:54:32 10° NW visible
31 Mar ? 02:14:52 10° WSW 02:16:20 12° W 02:17:48 10° WNW visible
03 Apr ? 02:03:49 10° SW 02:06:06 17° W 02:08:25 10° NW visible
06 Apr ? 01:52:16 10° SSW 01:55:04 24° W 01:57:54 10° NW visible
